Regional Weather Roundup
Issued by NWS

Home | Current Version | Previous Version | Text Only | Print | Product List | Glossary On
Versions: 1 2 3 4 5 6 7 8 9 10 11 12 13 14 15 16 17 18 19 20 21 22 23 24 25 26 27 28 29 30 31 32 33 34 35 36 37 38 39 40 41 42 43 44 45
000
ASPQ40 PGUM 271012
RWRPQ
WEATHER ROUNDUP FOR THE MARIANAS AND MICRONESIA
NATIONAL WEATHER SERVICE TIYAN GU
800 PM CHST SAT DEC 27 2014

GUZ001>004-271100-
MARIANA ISLANDS-

CITY           SKY/WX    TMP DP  RH WIND       PRES   REMARKS
GUAM AIRPORT   PTCLDY    82  73  74 E8        29.86R
ANDERSEN AFB   PTCLDY    79  73  83 E13       29.86R
ROTA AIRPORT   PTCLDY    79  73  83 E10       29.88R
TINIAN AP      PTCLDY    81  73  78 E10       29.86R
SAIPAN AP      MOCLDY    81  73  78 NE16G24   29.87R

$$

PMZ161-271100-
REPUBLIC OF PALAU-

CITY           SKY/WX    TMP DP  RH WIND       PRES   REMARKS
KOROR AP       CLOUDY    82  79  89 E8        29.75R HX  93
KOROR WSO      CLOUDY    84  77  79 E10       29.73R HX  94

$$

PMZ171>174-271100-
FEDERATED STATES OF MICRONESIA-

CITY           SKY/WX    TMP DP  RH WIND       PRES   REMARKS
YAP AIRPORT    CLOUDY    82  77  83 E9        29.79R HX  91
CHUUK AP       MOCLDY    82  73  74 NE10      29.77R
POHNPEI AP     NOT AVBL
POHNPEI WSO    CLOUDY    82  75  78 E10       29.82R
KOSRAE AP      NOT AVBL

$$

PMZ181-271100-
REPUBLIC OF THE MARSHALL ISLANDS-

CITY           SKY/WX    TMP DP  RH WIND       PRES   REMARKS
KWAJALEIN AP   PTCLDY    81  72  74 E18       29.83S
MAJURO AP      NOT AVBL
MAJURO WSO     MOCLDY    82  73  74 E8        29.80R

$$




USA.gov is the U.S. government's official web portal to all federal, state and local government web resources and services.